[[{"header":{"parameterUnit":"m.s-1","parameterCategory":2,"la1":30.2991,"la2":30.254,"lo1":-89.0895,"lo2":-89.0444,"dy":0.0017,"dx":0.0017,"nx":28,"ny":28,"refTime":"2025-07-24T21:00:00:Z","depth":"0","parameterNumber":2,"parameterNumberName":"U-component_of_CURRENTS"},"data":[0,0,0,0,0,0,0,0,0,0,0,0,0,0,0,0,0,0,0,0,0,0,0,0,0,0,0,0,0,0,0,0,0,0,0,0,0,0,0,0,0,0,0,0,0,0,0,0,0,0,0,0,0,0,0,0,0,0,0.3297,0.3297,0,0.3289,0.3289,0.3289,0.3274,0.3274,0.3274,0.3274,0.3257,0.3257,0.3257,0,0,0,0,0,0,0,0,0,0,0,0,0,0.3254,0.3255,0.3297,0.3297,0.3297,0.3289,0.3289,0.3289,0.3274,0.3274,0.3274,0.3274,0.3257,0.3257,0.3257,0,0,0,0,0,0,0,0,0,0,0,0,0,0.3261,0.3256,0.3297,0.3291,0.329,0.3289,0.3289,0.3289,0.3275,0.3274,0.3274,0.3274,0.3258,0.3257,0.3256,0.3256,0,0,0.3255,0.3255,0,0,0,0,0,0,0,0,0.326,0.3262,0.3291,0.3291,0.329,0.3284,0.3268,0.3278,0.3275,0.3278,0.3274,0.3274,0.3267,0.3266,0.3262,0.3255,0.3254,0.3255,0.3254,0.3254,0.3254,0,0,0,0,0,0,0,0.326,0.3262,0.3292,0.3292,0.3291,0.3273,0.3274,0.3269,0.3272,0.3278,0.3277,0.328,0.3266,0.3262,0.3261,0.3254,0.3255,0.3254,0.3254,0.3254,0.3378,0.3381,0,0,0,0,0,0,0.3268,0.3262,0.3292,0.3292,0.3277,0.3274,0.3275,0.3285,0.3272,0.3271,0.328,0.3279,0.3263,0.3262,0.3261,0.3375,0.3254,0.3254,0.3253,0.3374,0.3378,0.3382,0,0,0,0,0,0,0.3267,0.3271,0.3293,0.3277,0.3279,0.3275,0.3286,0.3285,0.3287,0.3274,0.3272,0.3284,0.3263,0.3261,0.327,0.3369,0.3253,0.3253,0.337,0.3375,0.338,0.3529,0,0,0,0,0,0,0.3266,0.3271,0.3285,0.3279,0.3281,0.3309,0.3287,0.3285,0.3289,0.3288,0.3277,0.3275,0.3263,0.3271,0.327,0.3367,0.3253,0.3365,0.3372,0.3379,0.3519,0.3539,0.3555,0,0,0,0,0,0.3264,0.3297,0.3285,0.3289,0.3299,0.331,0.331,0.3304,0.329,0.3302,0.3292,0.3275,0.3316,0.3272,0.3269,0.3369,0.3362,0.337,0.3378,0.3511,0.3535,0.3555,0,0,0,0,0,0,0.3292,0.3298,0.3286,0.3319,0.3317,0.3309,0.3328,0.3309,0.3309,0.3311,0.3287,0.3285,0.3343,0.3324,0.3277,0.3429,0.3351,0.3359,0.3453,0.3475,0.3492,0.3558,0.3252,0,0,0,0,0,0.3302,0.3326,0.3319,0.3346,0.3351,0.3335,0.3339,0.3331,0.3327,0.3327,0.331,0.3325,0.3375,0.3393,0.3407,0.3464,0.3504,0.3539,0.3557,0.3572,0.3627,0.3757,0.3792,0.3409,0.3409,0.3409,0,0,0.3315,0.3327,0.3337,0.3353,0.3354,0.3395,0.3338,0.3355,0.3412,0.3326,0.3382,0.3368,0.3399,0.3478,0.3507,0.3475,0.3701,0.3582,0.3595,0.3643,0.3769,0.3807,0.384,0.3415,0.3414,0.3413,0,0,0.3364,0.3371,0.3404,0.342,0.3431,0.3438,0.3445,0.3432,0.3453,0.3483,0.3473,0.3513,0.3535,0.3605,0.3645,0.3769,0.3781,0.3777,0.3933,0.4057,0.4091,0.4121,0.4214,0.4251,0.3798,0.3798,0.3798,0,0.3374,0.3427,0.3414,0.3462,0.35,0.3467,0.3525,0.3556,0.3546,0.3594,0.3524,0.3636,0.3624,0.3808,0.3854,0.3818,0.3874,0.3843,0.4084,0.4114,0.4142,0.423,0.4269,0.3806,0.3805,0.3805,0.3804,0,0.3447,0.3498,0.3529,0.359,0.3627,0.3671,0.3712,0.3751,0.3752,0.3778,0.3897,0.388,0.3963,0.3974,0.3952,0.4172,0.4142,0.408,0.4031,0.419,0.4272,0.431,0.3818,0.3815,0.3813,0.3811,0,0,0.3446,0.3555,0.3567,0.3636,0.3702,0.375,0.3869,0.3975,0.4079,0.4081,0.422,0.4299,0.4275,0.4323,0.4307,0.441,0.4624,0.4343,0.4345,0.444,0.4903,0.4765,0.4791,0.4606,0.4614,0.462,0.4877,0,0.3503,0.3641,0.3671,0.3819,0.3905,0.3946,0.4067,0.4167,0.4227,0.4342,0.4402,0.45,0.4425,0.4457,0.4567,0.4596,0.4734,0.456,0.4732,0.4738,0.46,0.4835,0.4562,0.4759,0.4914,0.492,0.4925,0,0.3569,0.3665,0.3816,0.3984,0.402,0.41,0.4303,0.4397,0.4568,0.4609,0.4733,0.4749,0.4926,0.4798,0.5032,0.4925,0.4963,0.4974,0.4983,0.484,0.4673,0.4628,0.4822,0.4596,0.4983,0.4978,0.4974,0,0.3632,0.3774,0.3913,0.3967,0.4137,0.4225,0.4312,0.4483,0.4587,0.4782,0.4855,0.5046,0.5121,0.5237,0.5251,0.5174,0.5468,0.5352,0.5289,0.5277,0.5076,0.5033,0.5079,0.5575,0.5575,0.5574,0.5573,0,0.3726,0.3846,0.3952,0.4043,0.4226,0.4295,0.4479,0.4602,0.4746,0.4877,0.4989,0.5117,0.5236,0.5377,0.539,0.5469,0.5599,0.54,0.5373,0.5113,0.5073,0.4884,0.4801,0.5583,0.5581,0.5579,0.5578,0,0.3848,0.3893,0.4076,0.423,0.4272,0.4419,0.4556,0.4667,0.4798,0.497,0.5034,0.5236,0.5408,0.5508,0.5683,0.5626,0.5531,0.5702,0.5371,0.53,0.4964,0.4899,0.4897,0.4762,0.57,0.5699,0.5698,0,0.3959,0.4049,0.4216,0.4276,0.4351,0.4505,0.4583,0.4709,0.4784,0.5019,0.5091,0.5325,0.5439,0.5657,0.563,0.5701,0.5513,0.5471,0.5276,0.4991,0.4902,0.4741,0.4615,0.5073,0.5067,0.5062,0.5058,0,0.4178,0.4204,0.4327,0.4408,0.4489,0.4576,0.4667,0.4721,0.4835,0.4957,0.5081,0.5195,0.5402,0.5343,0.5441,0.5432,0.5149,0.5367,0.5184,0.4548,0.4274,0.4108,0.484,0.5013,0.5018,0.5021,0.5024,0.5025,0.4331,0.4412,0.446,0.453,0.4583,0.455,0.4549,0.4591,0.4654,0.4715,0.4936,0.5001,0.5033,0.5115,0.5086,0.4781,0.4866,0.4564,0.4557,0.4458,0.418,0.4805,0.4855,0.4858,0.4861,0.4863,0.4866,0,0.4457,0.4462,0.454,0.4541,0.4502,0.4526,0.4512,0.4418,0.4372,0.4521,0.4585,0.4557,0.4463,0.4443,0.4199,0.3983,0.3828,0.3835,0.3538,0.3493,0.4143,0.3956,0.3674,0.3674,0.3674,0.3674,0.3675,0.3675,0.4523,0.4543,0.4506,0.4403,0.4365,0.4202,0.4129,0.4023,0.4035,0.3941,0.3916,0.4009,0.3977,0.3752,0.3414,0.3324,0.3058,0.2904,0.2965,0.3359,0.3424,0.3486,0.3288,0.287,0.2869,0.2118,0.2112,0.2107]},{"header":{"parameterUnit":"m.s-1","parameterCategory":2,"la1":30.2991,"la2":30.254,"lo1":-89.0895,"lo2":-89.0444,"dy":0.0017,"dx":0.0017,"nx":28,"ny":28,"refTime":"2025-07-24T21:00:00:Z","depth":"0","parameterNumber":3,"parameterNumberName":"V-component_of_CURRENTS"},"data":[0,0,0,0,0,0,0,0,0,0,0,0,0,0,0,0,0,0,0,0,0,0,0,0,0,0,0,0,0,0,0,0,0,0,0,0,0,0,0,0,0,0,0,0,0,0,0,0,0,0,0,0,0,0,0,0,0,0,0.0156,0.0156,0,0.0119,0.0119,0.0118,0.0085,0.0085,0.0084,0.0084,0.0005,0.0003,0.0001,0,0,0,0,0,0,0,0,0,0,0,0,0,0.0136,0.0137,0.0156,0.0156,0.0156,0.0119,0.0119,0.0118,0.0085,0.0085,0.0084,0.0084,0.0006,0.0003,0.0001,0,0,0,0,0,0,0,0,0,0,0,0,0,0.0125,0.0137,0.0156,0.0136,0.0134,0.0119,0.0119,0.0118,0.0085,0.0085,0.0084,0.0084,0.0006,0.0004,0.0001,-0.0011,0,0,-0.0008,-0.0009,0,0,0,0,0,0,0,0,0.0126,0.0126,0.014,0.0138,0.0135,0.0108,0.0083,0.0073,0.0085,0.0102,0.0084,0.0084,0.0037,0.0032,0.0023,-0.0014,-0.0018,-0.0008,-0.001,-0.0011,-0.0012,0,0,0,0,0,0,0,0.0127,0.0127,0.014,0.0139,0.0137,0.0108,0.0106,0.008,0.0069,0.01,0.0098,0.0097,0.0035,0.0026,0.0021,-0.0019,-0.0008,-0.0011,-0.0012,-0.0014,-0.0018,-0.0017,0,0,0,0,0,0,0.0139,0.0128,0.0141,0.0139,0.0132,0.0109,0.0107,0.0116,0.007,0.0064,0.0097,0.0096,0.0031,0.0024,0.0018,0.0072,-0.0011,-0.0014,-0.0016,-0.002,-0.0018,-0.0016,0,0,0,0,0,0,0.0139,0.0141,0.0142,0.0133,0.0132,0.011,0.012,0.0115,0.0109,0.0069,0.0062,0.0097,0.0031,0.0022,0.0005,0.0065,-0.0015,-0.0018,-0.0022,-0.0019,-0.0017,0.0134,0,0,0,0,0,0,0.0139,0.0141,0.0149,0.0135,0.0133,0.0147,0.012,0.0115,0.011,0.0107,0.0066,0.0058,0.003,0.0009,0.0002,0.006,-0.002,-0.0024,-0.0021,-0.0018,0.0127,0.0141,0.0153,0,0,0,0,0,0.0138,0.0155,0.0149,0.0151,0.0145,0.0148,0.0145,0.0126,0.011,0.0117,0.0087,0.006,0.0024,0.0008,-0.0001,0.0058,-0.0025,-0.0022,-0.0018,0.0121,0.0138,0.0153,0,0,0,0,0,0,0.0149,0.0153,0.0146,0.0163,0.0161,0.0143,0.0147,0.0132,0.0113,0.0107,0.0066,0.0057,0.0071,0.0032,0.0016,0.0064,0.0,0.0002,0.0109,0.0125,0.0138,0.0198,-0.0022,0,0,0,0,0,0.0156,0.0171,0.0167,0.018,0.0184,0.0165,0.0162,0.015,0.0133,0.0124,0.0098,0.0075,0.0079,0.0074,0.0056,0.007,0.0051,0.0105,0.0118,0.013,0.0171,0.0185,0.0205,-0.0005,-0.0005,-0.0005,0,0,0.0162,0.0167,0.0174,0.0183,0.0178,0.0215,0.0163,0.0166,0.0205,0.0118,0.015,0.0113,0.009,0.0118,0.0122,0.0093,0.0175,0.0134,0.0145,0.0181,0.0191,0.0212,0.023,-0.0002,-0.0003,-0.0003,0,0,0.0203,0.019,0.0228,0.0238,0.0242,0.0238,0.0245,0.0233,0.0237,0.0249,0.0217,0.0222,0.0194,0.0216,0.022,0.0292,0.0241,0.0274,0.0397,0.041,0.0428,0.0444,0.0432,0.0445,0.0285,0.0286,0.0286,0,0.0213,0.0265,0.0236,0.0285,0.0313,0.0262,0.0324,0.0324,0.0308,0.0342,0.0277,0.0302,0.0262,0.0354,0.0376,0.0332,0.0309,0.0341,0.0431,0.0446,0.046,0.0443,0.0456,0.0293,0.0292,0.0292,0.0291,0,0.0301,0.0338,0.0361,0.0417,0.0437,0.0471,0.0481,0.05,0.0484,0.0495,0.0549,0.0491,0.0522,0.0503,0.046,0.0557,0.0498,0.0443,0.0398,0.0491,0.0466,0.0477,0.0304,0.0302,0.0299,0.0297,0,0,0.0341,0.0413,0.0422,0.0478,0.0514,0.0544,0.062,0.0693,0.0768,0.0733,0.0839,0.0823,0.0788,0.079,0.0735,0.0735,0.0789,0.0636,0.0632,0.0639,0.0799,0.0752,0.0758,0.074,0.0744,0.0746,0.0737,0,0.0426,0.0544,0.0562,0.0679,0.0744,0.075,0.0835,0.0888,0.0907,0.0983,0.0962,0.1014,0.0901,0.0911,0.0905,0.0827,0.0827,0.0796,0.0696,0.0694,0.0654,0.0774,0.0751,0.0742,0.0748,0.0749,0.0751,0,0.0526,0.0589,0.072,0.0835,0.0867,0.0932,0.1065,0.1129,0.1224,0.1244,0.1293,0.1262,0.1304,0.1159,0.1112,0.109,0.0973,0.0884,0.0881,0.0804,0.067,0.0652,0.0761,0.0542,0.0767,0.0766,0.0764,0,0.0587,0.0709,0.0819,0.0856,0.0971,0.1047,0.1112,0.1216,0.1302,0.1412,0.1486,0.1504,0.153,0.1409,0.1238,0.1178,0.1151,0.1042,0.0894,0.0886,0.0838,0.0822,0.0745,0.1013,0.1013,0.1013,0.1013,0,0.0689,0.0774,0.0854,0.0915,0.106,0.1115,0.1271,0.1347,0.1474,0.1624,0.1617,0.1735,0.1591,0.1553,0.1345,0.1183,0.1242,0.0964,0.0909,0.0884,0.0874,0.0652,0.0529,0.1012,0.1012,0.1013,0.1013,0,0.0755,0.0804,0.093,0.1051,0.1091,0.1195,0.1352,0.1475,0.158,0.1777,0.183,0.1934,0.1917,0.1737,0.1569,0.1347,0.1047,0.1076,0.105,0.0993,0.0631,0.0517,0.0435,0.035,0.0929,0.0928,0.0928,0,0.081,0.0876,0.1005,0.1082,0.1141,0.1277,0.1388,0.1514,0.1656,0.191,0.2033,0.2109,0.2205,0.1956,0.1611,0.1295,0.1063,0.101,0.0898,0.0661,0.0492,0.0426,0.0355,0.0874,0.0873,0.0873,0.0872,0,0.0904,0.0935,0.1029,0.1165,0.1284,0.1427,0.1594,0.1719,0.1913,0.2107,0.2373,0.2477,0.2314,0.2058,0.1625,0.1363,0.0868,0.098,0.0759,0.0493,0.0397,0.0271,0.0801,0.0864,0.0865,0.0866,0.0866,0.0866,0.0961,0.1028,0.1126,0.1262,0.1397,0.157,0.1712,0.1923,0.2169,0.2509,0.26,0.2824,0.2388,0.1846,0.1495,0.079,0.0826,0.0538,0.0434,0.0399,0.0292,0.0804,0.0783,0.0784,0.0784,0.0784,0.0784,0,0.1022,0.1089,0.122,0.1378,0.1528,0.1589,0.1852,0.2028,0.234,0.2686,0.2937,0.2844,0.2283,0.169,0.0747,0.0303,0.0154,0.0056,-0.0055,-0.0093,0.0381,0.035,0.0207,0.0207,0.0207,0.0208,0.0208,0.0208,0.1059,0.1163,0.1216,0.1441,0.1567,0.1789,0.1945,0.2241,0.2527,0.292,0.3104,0.3231,0.2623,0.1027,-0.0011,-0.0223,-0.0507,-0.055,-0.0676,-0.0403,-0.0366,-0.0332,-0.039,-0.0685,-0.0686,-0.11,-0.1104,-0.1108]}],[{"header":{"parameterUnit":"m.s-1","parameterCategory":2,"la1":30.2991,"la2":30.254,"lo1":-89.0895,"lo2":-89.0444,"dy":0.0017,"dx":0.0017,"nx":28,"ny":28,"refTime":"2025-07-24T21:00:00:Z","depth":"2","parameterNumber":2,"parameterNumberName":"U-component_of_CURRENTS"},"data":[0,0,0,0,0,0,0,0,0,0,0,0,0,0,0,0,0,0,0,0,0,0,0,0,0,0,0,0,0,0,0,0,0,0,0,0,0,0,0,0,0,0,0,0,0,0,0,0,0,0,0,0,0,0,0,0,0,0,0.2638,0.2639,0,0.2667,0.2667,0.2667,0.2632,0.2631,0.263,0.263,0.2681,0.2683,0.2685,0,0,0,0,0,0,0,0,0,0,0,0,0,0.261,0.261,0.2638,0.2639,0.264,0.2667,0.2667,0.2667,0.2632,0.2631,0.263,0.2629,0.268,0.2683,0.2685,0,0,0,0,0,0,0,0,0,0,0,0,0,0.2624,0.261,0.2638,0.263,0.263,0.2667,0.2667,0.2667,0.2632,0.2631,0.263,0.2629,0.2679,0.2682,0.2685,0.2729,0,0,0.2695,0.2697,0,0,0,0,0,0,0,0,0.2623,0.2624,0.263,0.263,0.263,0.2649,0.2676,0.2691,0.2633,0.2626,0.263,0.2628,0.2677,0.268,0.268,0.2731,0.2734,0.2695,0.2697,0.2699,0.27,0,0,0,0,0,0,0,0.2622,0.2623,0.2644,0.2631,0.2632,0.2645,0.2644,0.2679,0.2654,0.2626,0.2625,0.2637,0.2676,0.2677,0.2681,0.2734,0.2695,0.2698,0.27,0.2701,0.2808,0.2809,0,0,0,0,0,0,0.2628,0.2622,0.2643,0.2645,0.263,0.2646,0.2646,0.264,0.2653,0.2655,0.2638,0.2636,0.2672,0.2678,0.2683,0.2788,0.2699,0.2702,0.2703,0.2807,0.2808,0.2809,0,0,0,0,0,0,0.2626,0.2628,0.2642,0.264,0.2643,0.2648,0.2642,0.2641,0.2662,0.2663,0.2664,0.2663,0.2672,0.2679,0.2718,0.2788,0.2703,0.2706,0.2806,0.2807,0.2809,0.2965,0,0,0,0,0,0,0.2625,0.2627,0.2632,0.2639,0.2644,0.2666,0.2644,0.2643,0.2673,0.267,0.2685,0.2686,0.2671,0.2714,0.2721,0.2791,0.2708,0.2805,0.2807,0.2808,0.2959,0.2972,0.2983,0,0,0,0,0,0.2624,0.263,0.2632,0.2636,0.2647,0.2667,0.267,0.2666,0.2676,0.2682,0.2694,0.2687,0.2729,0.2718,0.2726,0.2798,0.2804,0.2806,0.2808,0.2954,0.2969,0.2983,0,0,0,0,0,0,0.2619,0.2628,0.263,0.2638,0.2655,0.2663,0.2684,0.269,0.2706,0.2713,0.2711,0.2714,0.2777,0.2753,0.274,0.2825,0.2763,0.2767,0.287,0.2885,0.2896,0.2971,0.2711,0,0,0,0,0,0.2624,0.2628,0.2644,0.2653,0.2672,0.2689,0.2704,0.2703,0.2719,0.2725,0.2735,0.275,0.2791,0.2809,0.2822,0.288,0.2907,0.2922,0.2934,0.2945,0.3006,0.3078,0.3104,0.2816,0.2816,0.2816,0,0,0.2614,0.2634,0.2627,0.2653,0.2675,0.2716,0.2694,0.2725,0.2771,0.2733,0.2797,0.2802,0.2813,0.2871,0.2897,0.2865,0.3037,0.2947,0.2958,0.3014,0.3083,0.3112,0.3138,0.2818,0.2817,0.2817,0,0,0.2634,0.2633,0.266,0.2678,0.2724,0.2743,0.2763,0.2786,0.2811,0.2868,0.2862,0.2914,0.2946,0.298,0.3004,0.3093,0.3102,0.3077,0.3211,0.3279,0.3305,0.3329,0.3401,0.343,0.3081,0.3081,0.3081,0,0.2644,0.2667,0.2671,0.2718,0.2739,0.2768,0.2808,0.2856,0.2884,0.2921,0.2901,0.3015,0.3015,0.3143,0.317,0.3134,0.3168,0.3163,0.3303,0.3326,0.3348,0.3416,0.3446,0.3089,0.3088,0.3087,0.3086,0,0.2684,0.2711,0.2737,0.2803,0.2823,0.286,0.2916,0.2964,0.3007,0.3043,0.3164,0.3192,0.3255,0.3267,0.3263,0.3418,0.3391,0.3317,0.3283,0.3388,0.345,0.3479,0.31,0.3097,0.3095,0.3093,0,0,0.27,0.2756,0.2767,0.2794,0.2863,0.2881,0.2987,0.3076,0.3162,0.323,0.3335,0.3454,0.3475,0.3507,0.3514,0.3601,0.3776,0.3544,0.3544,0.3649,0.3951,0.3739,0.3748,0.3727,0.3732,0.3737,0.3935,0,0.2749,0.2822,0.2838,0.2906,0.2945,0.2986,0.3086,0.3164,0.3239,0.3341,0.3448,0.3571,0.3567,0.3634,0.3715,0.3765,0.3859,0.3731,0.3807,0.3811,0.3636,0.3777,0.3454,0.3587,0.3963,0.3967,0.3971,0,0.2796,0.2837,0.2891,0.296,0.2985,0.3042,0.3166,0.326,0.342,0.348,0.3621,0.3696,0.3899,0.384,0.406,0.398,0.4,0.4033,0.4038,0.3819,0.3652,0.3538,0.3624,0.4018,0.4014,0.4011,0.4008,0,0.279,0.2875,0.2909,0.2922,0.3016,0.3071,0.3165,0.331,0.3414,0.3612,0.3702,0.3897,0.4031,0.413,0.4201,0.4162,0.438,0.43,0.4145,0.4129,0.3862,0.3812,0.4452,0.4451,0.4451,0.445,0.445,0,0.2825,0.2845,0.2916,0.2926,0.3005,0.3089,0.3207,0.3328,0.3517,0.3657,0.3802,0.394,0.4118,0.4236,0.4267,0.4299,0.4433,0.4236,0.4185,0.3899,0.3852,0.4213,0.4183,0.4458,0.4456,0.4455,0.4453,0,0.2789,0.2827,0.2856,0.2955,0.2992,0.3056,0.3228,0.3348,0.3542,0.3728,0.3833,0.4045,0.4215,0.4317,0.4467,0.438,0.4427,0.4378,0.4032,0.3936,0.4129,0.4105,0.4299,0.4294,0.4289,0.4285,0.4282,0,0.2758,0.2784,0.2849,0.2918,0.2966,0.3074,0.3178,0.3339,0.3455,0.3777,0.3861,0.4111,0.4188,0.4298,0.4237,0.4258,0.4347,0.393,0.3787,0.4193,0.4125,0.4107,0.4089,0.3517,0.3508,0.35,0.3494,0,0.2715,0.2743,0.2777,0.289,0.2975,0.3087,0.3244,0.3292,0.3519,0.362,0.3808,0.3925,0.4054,0.3898,0.3887,0.3839,0.3902,0.3771,0.4332,0.3558,0.3458,0.3388,0.3397,0.3427,0.3434,0.3439,0.3442,0.3445,0.2709,0.2698,0.2763,0.2859,0.297,0.3109,0.3147,0.324,0.3289,0.3393,0.3573,0.357,0.3645,0.3437,0.3335,0.3253,0.3517,0.3358,0.3382,0.3414,0.3241,0.3132,0.3012,0.3016,0.3019,0.3023,0.3025,0,0.2719,0.272,0.2781,0.2856,0.2934,0.3076,0.3193,0.3112,0.3027,0.3099,0.312,0.2851,0.2764,0.2864,0.2644,0.2615,0.2604,0.2503,0.2485,0.2553,0.2613,0.2399,0.1948,0.1944,0.1941,0.1938,0,0,0.2736,0.2713,0.2674,0.2732,0.2887,0.291,0.2965,0.2793,0.2719,0.2484,0.2419,0.2585,0.2758,0.2306,0.2246,0.2076,0.2293,0.1981,0.2848,0.2895,0.2952,0.3111,0.2856,0,0,0,0,0]},{"header":{"parameterUnit":"m.s-1","parameterCategory":2,"la1":30.2991,"la2":30.254,"lo1":-89.0895,"lo2":-89.0444,"dy":0.0017,"dx":0.0017,"nx":28,"ny":28,"refTime":"2025-07-24T21:00:00:Z","depth":"2","parameterNumber":3,"parameterNumberName":"V-component_of_CURRENTS"},"data":[0,0,0,0,0,0,0,0,0,0,0,0,0,0,0,0,0,0,0,0,0,0,0,0,0,0,0,0,0,0,0,0,0,0,0,0,0,0,0,0,0,0,0,0,0,0,0,0,0,0,0,0,0,0,0,0,0,0,0.0101,0.0101,0,0.0057,0.0056,0.0055,0.0022,0.0021,0.0021,0.0021,-0.0049,-0.0051,-0.0053,0,0,0,0,0,0,0,0,0,0,0,0,0,0.0087,0.0088,0.0101,0.0101,0.0101,0.0057,0.0056,0.0055,0.0022,0.0021,0.0021,0.0021,-0.0049,-0.0051,-0.0053,0,0,0,0,0,0,0,0,0,0,0,0,0,0.0072,0.0088,0.0101,0.008,0.0078,0.0057,0.0056,0.0055,0.0022,0.0021,0.0021,0.0021,-0.0048,-0.0051,-0.0053,-0.0065,0,0,-0.0061,-0.0062,0,0,0,0,0,0,0,0,0.0073,0.0072,0.0083,0.0081,0.0079,0.0046,0.0025,0.0014,0.0022,0.0041,0.0021,0.0021,-0.0019,-0.0024,-0.0034,-0.0068,-0.0071,-0.0062,-0.0063,-0.0064,-0.0065,0,0,0,0,0,0,0,0.0074,0.0073,0.0082,0.0083,0.008,0.0048,0.0046,0.0023,0.0011,0.0039,0.0037,0.0035,-0.002,-0.0031,-0.0036,-0.0072,-0.0061,-0.0064,-0.0065,-0.0066,-0.0099,-0.0098,0,0,0,0,0,0,0.0087,0.0075,0.0083,0.0081,0.0077,0.0049,0.0047,0.0055,0.0012,0.0006,0.0035,0.0034,-0.0027,-0.0033,-0.0038,-0.0027,-0.0064,-0.0067,-0.0068,-0.0099,-0.0099,-0.0098,0,0,0,0,0,0,0.0087,0.0089,0.0085,0.0077,0.0075,0.005,0.006,0.0055,0.0047,0.0009,0.0002,0.0033,-0.0027,-0.0035,-0.0052,-0.0031,-0.0068,-0.007,-0.01,-0.0099,-0.0098,-0.0022,0,0,0,0,0,0,0.0087,0.0089,0.0096,0.0079,0.0076,0.0082,0.006,0.0054,0.0046,0.0044,0.0005,-0.0002,-0.0028,-0.0047,-0.0054,-0.0035,-0.0072,-0.0101,-0.01,-0.0099,-0.0025,-0.0018,-0.0012,0,0,0,0,0,0.0087,0.0104,0.0097,0.0098,0.0088,0.0083,0.0079,0.0058,0.0047,0.0049,0.0023,-0.0,-0.0044,-0.0049,-0.0057,-0.0038,-0.0102,-0.01,-0.0099,-0.0028,-0.002,-0.0013,0,0,0,0,0,0,0.0098,0.0101,0.0094,0.011,0.01,0.0078,0.0078,0.0064,0.0044,0.004,0.0004,-0.0005,-0.001,-0.0037,-0.0042,-0.0044,-0.0075,-0.0075,-0.0018,-0.0011,-0.0004,0.0025,-0.0074,0,0,0,0,0,0.0105,0.012,0.0112,0.0122,0.0122,0.01,0.0094,0.0081,0.0063,0.0054,0.0029,0.0004,-0.0011,-0.002,-0.0042,-0.0046,-0.0069,-0.0038,-0.0032,-0.0026,-0.0008,-0.0029,-0.0022,-0.0093,-0.0093,-0.0093,0,0,0.011,0.0114,0.0121,0.0125,0.0115,0.0126,0.0096,0.0093,0.01,0.0049,0.0049,0.0023,-0.0008,-0.0009,-0.0013,-0.0028,-0.0019,-0.0024,-0.0019,-0.0003,-0.0026,-0.0019,-0.0013,-0.0091,-0.0092,-0.0092,0,0,0.0136,0.0135,0.0159,0.0159,0.0154,0.0142,0.0146,0.013,0.0121,0.0114,0.0086,0.0077,0.0044,0.0036,0.0026,0.0054,0.0014,0.0044,0.0102,0.0082,0.0088,0.0093,0.0068,0.007,0.0049,0.0049,0.005,0,0.0141,0.0176,0.0162,0.0185,0.0191,0.0157,0.0182,0.0169,0.0147,0.0148,0.0124,0.0106,0.0071,0.009,0.0098,0.0072,0.005,0.0076,0.0091,0.0096,0.0099,0.0073,0.0075,0.0053,0.0053,0.0052,0.0052,0,0.0193,0.0214,0.0228,0.0251,0.0251,0.0265,0.0251,0.0248,0.0229,0.0216,0.0224,0.0187,0.018,0.0168,0.0138,0.0159,0.0131,0.0101,0.0075,0.0111,0.0081,0.0081,0.0059,0.0057,0.0056,0.0055,0,0,0.022,0.0259,0.0264,0.0294,0.029,0.0305,0.0309,0.0317,0.0338,0.031,0.0327,0.0312,0.0294,0.0283,0.0252,0.0237,0.0231,0.0186,0.0183,0.0168,0.0184,0.0131,0.0125,0.0201,0.0202,0.0202,0.0151,0,0.0266,0.0336,0.0333,0.0389,0.0424,0.0399,0.0415,0.0411,0.0395,0.0396,0.0365,0.0373,0.0337,0.0342,0.032,0.0273,0.0236,0.0248,0.0146,0.0143,0.0096,0.0125,0.0139,0.0092,0.0151,0.0151,0.0151,0,0.032,0.0364,0.043,0.0482,0.0495,0.0515,0.0543,0.0557,0.0537,0.0525,0.0521,0.0482,0.0487,0.0419,0.0379,0.039,0.0287,0.0232,0.0228,0.0156,0.0091,0.0065,0.0089,0.015,0.015,0.015,0.015,0,0.0365,0.0433,0.0495,0.0511,0.0555,0.0577,0.0599,0.0598,0.0636,0.0613,0.0631,0.0605,0.0605,0.0519,0.0413,0.0395,0.0328,0.0282,0.0131,0.0125,0.0108,0.01,0.0196,0.0196,0.0196,0.0196,0.0197,0,0.042,0.0471,0.0528,0.0562,0.0644,0.0647,0.072,0.0726,0.0748,0.0824,0.0718,0.0774,0.0627,0.0566,0.0444,0.0317,0.0356,0.0154,0.0114,0.0133,0.0128,0.0154,0.015,0.0194,0.0195,0.0195,0.0196,0,0.0458,0.0489,0.0575,0.0642,0.0666,0.073,0.0815,0.0878,0.0884,0.0971,0.0977,0.0914,0.0854,0.0678,0.0525,0.0372,0.0242,0.0151,0.018,0.0144,0.0038,0.0038,0.0006,0.0004,0.0002,0.0,-0.0001,0,0.0488,0.0532,0.0637,0.0691,0.0724,0.0816,0.0883,0.0936,0.1016,0.1101,0.1157,0.1085,0.1072,0.0806,0.0515,0.0262,0.0218,0.0059,0.0014,0.0056,0.0021,0.0024,0.0027,0.002,0.0019,0.0018,0.0018,0,0.0544,0.0576,0.0648,0.0781,0.0868,0.096,0.1066,0.1163,0.1258,0.1351,0.1474,0.1469,0.1169,0.0912,0.048,0.0299,0.0112,0.003,0.0086,0.0059,0.0063,0.003,0.0034,0.001,0.0011,0.0012,0.0012,0.0012,0.0578,0.0656,0.0766,0.0883,0.0983,0.1107,0.122,0.1361,0.1539,0.1698,0.1687,0.1673,0.1313,0.0772,0.0444,0.0052,0.0059,-0.0083,-0.0077,-0.0071,-0.0067,-0.0067,-0.0144,-0.0144,-0.0144,-0.0144,-0.0144,0,0.0656,0.0735,0.0859,0.1018,0.1151,0.1164,0.1347,0.1487,0.1735,0.1833,0.1922,0.1585,0.1256,0.0857,0.0278,-0.0066,-0.0086,-0.0176,-0.0113,-0.0104,-0.0097,-0.0092,-0.0177,-0.0178,-0.0178,-0.0179,0,0,0.0694,0.0845,0.0922,0.1143,0.1234,0.1425,0.153,0.1717,0.1839,0.1961,0.193,0.1834,0.1358,0.0939,0.0476,0.0164,0.0109,0.0087,0.0143,0.0279,0.0292,-0.0025,-0.0006,0,0,0,0,0]}],[{"header":{"parameterUnit":"m.s-1","parameterCategory":2,"la1":30.2991,"la2":30.254,"lo1":-89.0895,"lo2":-89.0444,"dy":0.0017,"dx":0.0017,"nx":28,"ny":28,"refTime":"2025-07-24T21:00:00:Z","depth":"4","parameterNumber":2,"parameterNumberName":"U-component_of_CURRENTS"},"data":[0,0,0,0,0,0,0,0,0,0,0,0,0,0,0,0,0,0,0,0,0,0,0,0,0,0,0,0,0,0,0,0,0,0,0,0,0,0,0,0,0,0,0,0,0,0,0,0,0,0,0,0,0,0,0,0,0,0,0.1515,0.1516,0,0.1589,0.159,0.1591,0.165,0.1651,0.1652,0.1652,0.1747,0.1749,0.1751,0,0,0,0,0,0,0,0,0,0,0,0,0,0.1468,0.1468,0.1515,0.1516,0.1517,0.1589,0.159,0.1591,0.165,0.1651,0.1652,0.1653,0.1746,0.1748,0.1751,0,0,0,0,0,0,0,0,0,0,0,0,0,0.1509,0.1468,0.1515,0.1556,0.156,0.1589,0.159,0.1591,0.165,0.1651,0.1652,0.1653,0.1745,0.1748,0.1751,0.1749,0,0,0.176,0.1761,0,0,0,0,0,0,0,0,0.1507,0.1511,0.1549,0.1553,0.1558,0.1612,0.1608,0.1645,0.165,0.1615,0.1652,0.1654,0.1703,0.171,0.172,0.1754,0.1758,0.176,0.1762,0.1763,0.1764,0,0,0,0,0,0,0,0.1504,0.1508,0.1544,0.155,0.1555,0.1585,0.1592,0.1616,0.1653,0.1619,0.1623,0.1632,0.1706,0.1717,0.1723,0.1759,0.176,0.1763,0.1764,0.1765,0.1904,0.1906,0,0,0,0,0,0,0.1492,0.1505,0.1542,0.1546,0.1535,0.1585,0.1592,0.1593,0.1652,0.1662,0.1631,0.1634,0.1712,0.172,0.1727,0.1833,0.1763,0.1766,0.1767,0.1902,0.1904,0.1907,0,0,0,0,0,0,0.1491,0.1494,0.1539,0.1528,0.1536,0.1584,0.1585,0.1594,0.1641,0.1662,0.1672,0.1673,0.1713,0.1723,0.1777,0.1833,0.1767,0.177,0.19,0.1903,0.1905,0.1977,0,0,0,0,0,0,0.1489,0.1493,0.151,0.1527,0.1536,0.1578,0.1585,0.1595,0.1643,0.1649,0.17,0.1708,0.1715,0.1772,0.1779,0.1836,0.1772,0.1897,0.1901,0.1905,0.1973,0.1982,0.1991,0,0,0,0,0,0.1487,0.1492,0.151,0.1515,0.155,0.1579,0.1587,0.1624,0.1644,0.167,0.1704,0.1708,0.1801,0.1776,0.1784,0.1842,0.1895,0.19,0.1904,0.1968,0.198,0.1991,0,0,0,0,0,0,0.148,0.1499,0.1519,0.1531,0.1567,0.159,0.162,0.1643,0.169,0.1707,0.1726,0.1736,0.181,0.181,0.1782,0.1893,0.1853,0.1859,0.1899,0.191,0.1919,0.1922,0.1774,0,0,0,0,0,0.1485,0.1496,0.1525,0.154,0.1562,0.16,0.1625,0.165,0.1683,0.1707,0.1745,0.1785,0.1828,0.1856,0.1889,0.1941,0.1948,0.1986,0.1995,0.2003,0.2012,0.2079,0.2095,0.1921,0.1921,0.1921,0,0,0.1482,0.15,0.1505,0.1541,0.1575,0.1611,0.1619,0.1663,0.1703,0.1709,0.1786,0.1822,0.1849,0.1916,0.1949,0.1927,0.2053,0.2009,0.2015,0.2019,0.2085,0.2102,0.2117,0.1924,0.1923,0.1923,0,0,0.1488,0.1508,0.1529,0.1561,0.1617,0.1637,0.1658,0.1708,0.1748,0.1811,0.1836,0.1898,0.196,0.1994,0.2015,0.2092,0.2102,0.2117,0.2168,0.2233,0.2248,0.2261,0.2277,0.2291,0.212,0.212,0.212,0,0.1498,0.1518,0.1542,0.1581,0.1608,0.1654,0.169,0.1733,0.1798,0.1839,0.1848,0.1972,0.1996,0.2078,0.2112,0.2115,0.2142,0.2123,0.2246,0.2259,0.2272,0.2284,0.2299,0.2124,0.2124,0.2123,0.2123,0,0.1518,0.1551,0.1569,0.1627,0.166,0.1697,0.1752,0.1812,0.1865,0.1909,0.2017,0.2057,0.2129,0.2158,0.2161,0.2271,0.2257,0.2251,0.2217,0.2294,0.2301,0.2315,0.213,0.2129,0.2127,0.2126,0,0,0.1497,0.157,0.1581,0.1607,0.1687,0.1703,0.179,0.1867,0.1921,0.2016,0.209,0.2189,0.2229,0.2256,0.2283,0.2344,0.2447,0.2347,0.2349,0.2359,0.2577,0.2397,0.2394,0.2481,0.2484,0.2487,0.2541,0,0.1517,0.1566,0.161,0.1663,0.1686,0.1759,0.1821,0.1901,0.1976,0.2059,0.2148,0.2226,0.2261,0.2301,0.238,0.2444,0.2491,0.2431,0.2503,0.2504,0.2334,0.2407,0.2497,0.2551,0.2554,0.2556,0.2558,0,0.1522,0.155,0.1599,0.1658,0.168,0.1732,0.1826,0.1892,0.2026,0.2087,0.2206,0.2268,0.2402,0.2392,0.2564,0.2536,0.2564,0.2595,0.2598,0.2415,0.2351,0.2463,0.2583,0.2581,0.2579,0.2577,0.2576,0,0.1448,0.1535,0.1564,0.1588,0.1674,0.1731,0.1794,0.1915,0.1978,0.2117,0.2182,0.2334,0.242,0.2523,0.262,0.261,0.277,0.2748,0.26,0.2586,0.2699,0.2685,0.2833,0.2833,0.2833,0.2833,0.2833,0,0.1408,0.1431,0.1541,0.1546,0.1598,0.1684,0.1765,0.1848,0.198,0.2058,0.2201,0.2279,0.2468,0.2582,0.2644,0.2675,0.2797,0.2618,0.26,0.2724,0.2712,0.2707,0.2692,0.2835,0.2835,0.2834,0.2834,0,0.1295,0.1372,0.1402,0.151,0.156,0.1591,0.1743,0.1788,0.1939,0.2048,0.2101,0.2286,0.2437,0.2576,0.2722,0.2679,0.2725,0.2686,0.2796,0.2782,0.2484,0.2472,0.2526,0.252,0.2515,0.2511,0.2508,0,0.1229,0.1241,0.1354,0.1378,0.1436,0.1525,0.1582,0.1746,0.1809,0.2037,0.2071,0.226,0.2374,0.245,0.259,0.2668,0.2641,0.2614,0.256,0.2481,0.246,0.2455,0.245,0.25,0.2499,0.2498,0.2497,0,0.1096,0.1158,0.1187,0.1253,0.1317,0.1369,0.1484,0.1528,0.1723,0.1885,0.2005,0.2093,0.2234,0.2354,0.242,0.2473,0.2616,0.2563,0.2573,0.2522,0.2451,0.2433,0.2434,0.248,0.2483,0.2484,0.2485,0,0.1003,0.1003,0.1069,0.1126,0.1179,0.1199,0.128,0.1391,0.1494,0.1776,0.1811,0.2028,0.2211,0.225,0.2325,0.2358,0.2326,0.2238,0.2264,0.2283,0.2182,0.2054,0.1955,0,0,0,0,0,0.0897,0.0907,0.094,0.0979,0.1016,0.1062,0.1204,0.13,0.1526,0.1562,0.1693,0.1823,0.1945,0.2048,0.204,0.2197,0.2313,0.217,0.2218,0.2388,0.2407,0.2312,0,0,0,0,0,0,0.0829,0.0842,0.0898,0.0853,0.0851,0.0883,0.0966,0.1112,0.1168,0.1412,0.1503,0.1679,0.1837,0.1936,0.1993,0.2025,0.2009,0.2311,0.2305,0.2377,0.2395,0.241,0.2319,0,0,0,0,0]},{"header":{"parameterUnit":"m.s-1","parameterCategory":2,"la1":30.2991,"la2":30.254,"lo1":-89.0895,"lo2":-89.0444,"dy":0.0017,"dx":0.0017,"nx":28,"ny":28,"refTime":"2025-07-24T21:00:00:Z","depth":"4","parameterNumber":3,"parameterNumberName":"V-component_of_CURRENTS"},"data":[0,0,0,0,0,0,0,0,0,0,0,0,0,0,0,0,0,0,0,0,0,0,0,0,0,0,0,0,0,0,0,0,0,0,0,0,0,0,0,0,0,0,0,0,0,0,0,0,0,0,0,0,0,0,0,0,0,0,0.0112,0.0112,0,0.0081,0.008,0.008,0.0054,0.0053,0.0053,0.0053,0.0002,0.0001,-0.0001,0,0,0,0,0,0,0,0,0,0,0,0,0,0.0099,0.0099,0.0112,0.0112,0.0112,0.0081,0.008,0.008,0.0054,0.0053,0.0053,0.0053,0.0002,0.0001,-0.0001,0,0,0,0,0,0,0,0,0,0,0,0,0,0.0089,0.01,0.0112,0.0096,0.0094,0.0081,0.008,0.008,0.0054,0.0053,0.0053,0.0053,0.0003,0.0001,-0.0001,-0.0006,0,0,-0.0006,-0.0007,0,0,0,0,0,0,0,0,0.009,0.0089,0.0098,0.0097,0.0095,0.0072,0.0057,0.005,0.0054,0.0068,0.0053,0.0053,0.0024,0.0021,0.0014,-0.0009,-0.0011,-0.0007,-0.0008,-0.0008,-0.0009,0,0,0,0,0,0,0,0.009,0.009,0.0099,0.0098,0.0096,0.0072,0.0071,0.0055,0.0047,0.0067,0.0065,0.0063,0.0023,0.0016,0.0013,-0.0012,-0.0007,-0.0008,-0.0009,-0.001,-0.0038,-0.0038,0,0,0,0,0,0,0.01,0.0091,0.01,0.0098,0.0093,0.0073,0.0072,0.0079,0.0047,0.0043,0.0063,0.0062,0.0019,0.0015,0.0011,0.0007,-0.0008,-0.001,-0.0011,-0.0039,-0.0038,-0.0038,0,0,0,0,0,0,0.01,0.0101,0.0101,0.0094,0.0092,0.0074,0.0082,0.0078,0.0073,0.0045,0.004,0.0062,0.0019,0.0013,0.0001,0.0004,-0.0011,-0.0013,-0.0039,-0.0039,-0.0038,-0.0004,0,0,0,0,0,0,0.0099,0.0101,0.0109,0.0095,0.0093,0.0097,0.0082,0.0078,0.0072,0.007,0.0042,0.0037,0.0018,0.0004,-0.0001,0.0002,-0.0014,-0.0039,-0.0039,-0.0038,-0.0006,-0.0003,0.0,0,0,0,0,0,0.0099,0.0113,0.0109,0.011,0.0105,0.0097,0.0094,0.0079,0.0073,0.0072,0.0055,0.0038,0.0005,0.0003,-0.0003,-0.0001,-0.004,-0.0039,-0.0038,-0.0007,-0.0003,-0.0,0,0,0,0,0,0,0.0109,0.0112,0.0107,0.0121,0.0111,0.0094,0.0094,0.0083,0.007,0.0068,0.0042,0.0036,0.0026,0.001,0.0009,-0.0007,-0.002,-0.0021,0.0005,0.0009,0.0012,0.0007,-0.0015,0,0,0,0,0,0.0116,0.0129,0.012,0.013,0.0128,0.0111,0.0107,0.0097,0.0083,0.0077,0.0058,0.004,0.0024,0.0015,-0.0001,-0.0009,-0.0034,-0.0011,-0.0008,-0.0006,-0.0013,-0.0037,-0.0037,-0.0036,-0.0036,-0.0036,0,0,0.0121,0.0125,0.0131,0.0133,0.0125,0.0126,0.0108,0.0105,0.0102,0.0074,0.0067,0.0049,0.0025,0.0015,0.001,0.0002,-0.0019,-0.0005,-0.0003,-0.0012,-0.0036,-0.0036,-0.0036,-0.0035,-0.0035,-0.0035,0,0,0.0138,0.0143,0.0157,0.0156,0.0151,0.0138,0.014,0.0125,0.0116,0.0106,0.0087,0.0071,0.0048,0.0031,0.0019,0.0028,-0.0003,0.0027,0.0035,0.0013,0.0013,0.0012,-0.0021,-0.0025,0.0028,0.0028,0.0028,0,0.0143,0.0167,0.0158,0.0171,0.0178,0.0148,0.0163,0.0144,0.0126,0.0126,0.0109,0.0075,0.0053,0.004,0.0039,0.0033,0.0013,0.0025,0.0017,0.0015,0.0014,-0.002,-0.0025,0.0029,0.0029,0.0029,0.0029,0,0.0171,0.0191,0.02,0.0209,0.0209,0.0219,0.0198,0.0193,0.0176,0.0158,0.014,0.0102,0.0086,0.0073,0.0054,0.0039,0.0025,0.0024,0.0008,0.0016,-0.002,-0.0026,0.0032,0.0031,0.0031,0.003,0,0,0.0184,0.0216,0.022,0.0249,0.0239,0.0251,0.0241,0.0237,0.025,0.0199,0.0204,0.0153,0.0129,0.0114,0.0086,0.0053,0.0021,0.0034,0.0032,-0.0,-0.0037,-0.0044,-0.0051,0.0022,0.0021,0.0021,-0.0059,0,0.0212,0.0265,0.0262,0.0307,0.0337,0.0318,0.0324,0.0311,0.0288,0.028,0.0213,0.0206,0.0145,0.0148,0.0098,0.0049,0.0008,0.0042,-0.004,-0.0043,-0.005,-0.0057,0.0019,-0.0063,-0.0065,-0.0066,-0.0066,0,0.0243,0.0281,0.0337,0.0394,0.0404,0.0418,0.0445,0.0448,0.041,0.0391,0.0341,0.0294,0.0227,0.0184,0.0067,0.0094,0.0027,-0.0026,-0.003,-0.0055,-0.006,-0.0074,-0.0077,-0.0076,-0.0076,-0.0075,-0.0074,0,0.0285,0.0339,0.0396,0.0413,0.0454,0.048,0.0498,0.0486,0.0511,0.0464,0.0468,0.0367,0.0335,0.0224,0.009,0.009,-0.0043,-0.0047,-0.0125,-0.0127,-0.0112,-0.011,-0.013,-0.0129,-0.0129,-0.0129,-0.0129,0,0.033,0.0379,0.0429,0.0466,0.0547,0.0548,0.0616,0.0614,0.0614,0.0644,0.0536,0.0521,0.0346,0.0243,0.0112,-0.0034,-0.0026,-0.0134,-0.0148,-0.0096,-0.0091,-0.0116,-0.0114,-0.0132,-0.0131,-0.0131,-0.013,0,0.0376,0.04,0.0482,0.0546,0.0574,0.0636,0.0711,0.0759,0.0741,0.0772,0.0764,0.0643,0.0503,0.0318,0.0137,0.0018,-0.0126,-0.0177,-0.0121,-0.0129,-0.0203,-0.0197,-0.0266,-0.0267,-0.0268,-0.0268,-0.0269,0,0.0407,0.0453,0.0553,0.061,0.0646,0.0733,0.0798,0.0821,0.0861,0.0844,0.0858,0.0736,0.063,0.0358,0.0154,-0.0104,-0.014,-0.0221,-0.0216,-0.021,-0.0217,-0.021,-0.0204,-0.027,-0.027,-0.0271,-0.0271,0,0.0472,0.0504,0.057,0.0691,0.0775,0.0878,0.0958,0.0995,0.1013,0.1001,0.0941,0.0785,0.0617,0.0372,0.0165,-0.002,-0.0174,-0.023,-0.023,-0.0225,-0.0216,-0.022,-0.0213,-0.0274,-0.0273,-0.0273,-0.0273,0,0.0519,0.0576,0.0659,0.0766,0.0874,0.0977,0.1022,0.106,0.1096,0.1056,0.1032,0.0835,0.0712,0.0417,0.0226,0.0037,-0.0008,-0.0069,-0.0077,-0.0077,-0.0007,0.0033,0.0036,0,0,0,0,0,0.0567,0.0628,0.0728,0.084,0.0947,0.1014,0.1107,0.1134,0.1139,0.1116,0.1076,0.0915,0.0619,0.0477,0.0291,0.0207,-0.0044,-0.0019,-0.0119,-0.0289,-0.0285,-0.0238,0,0,0,0,0,0,0.0591,0.0689,0.0731,0.0873,0.0957,0.1086,0.1148,0.1165,0.1138,0.1106,0.095,0.0864,0.0573,0.0728,0.0285,0.0225,0.0134,-0.0162,-0.0166,-0.029,-0.0287,-0.0285,-0.0235,0,0,0,0,0]}]]